Weather - Helsinki Query any day in the database

Current weather  

Weather data for a selected day (2006-01-01 -2020-12-04)
Enter date:     <-     scroll days         ->
day curves
Low temperature°C -16.023:50
High temperature°C -5.012:20
Low wind chill°C -22.721:20
Average temperature°C -9.0 
High wind speed (10 min) m/s 5.012:50
Low pressurehPa 1046.001:50
High pressurehPa 1052.023:50
Low R.H% 6212:20
High R.H% 9222:20
Day weather data as a table
Date Time Temp
°C
Chill
°C
Pressure
hPA
Wind
m/s
Hum
%
Precip
mm
2012-01-28 23:50:00 -16.0  -21.1  1052.0 2.0 91 -
2012-01-28 22:50:00 -14.0  -21.5  1052.0 4.0 84 -
2012-01-28 22:20:00 -14.0  -21.5  1052.0 4.0 92 -
2012-01-28 21:50:00 -14.0  -21.5  1051.0 4.0 92 -
2012-01-28 21:20:00 -15.0  -22.7  1051.0 4.0 92 -
2012-01-28 20:50:00 -15.0  -22.7  1051.0 4.0 84 -
2012-01-28 20:20:00 -16.0  -22.7  1051.0 3.0 91 -
2012-01-28 19:50:00 -14.0  -21.5  1051.0 4.0 92 -
2012-01-28 19:20:00 -13.0  -20.3  1051.0 4.0 84 -
2012-01-28 18:50:00 -13.0  -19.1  1051.0 3.0 84 -
2012-01-28 18:20:00 -9.0  -14.3  1051.0 3.0 85 -
2012-01-28 17:20:00 -8.0  -13.1  1051.0 3.0 72 -
2012-01-28 16:20:00 -8.0  -13.1  1050.0 3.0 67 -
2012-01-28 14:20:00 -6.0  -11.7  1050.0 4.0 67 -
2012-01-28 13:50:00 -6.0  -11.7  1050.0 4.0 67 -
2012-01-28 13:20:00 -6.0  -11.7  1050.0 4.0 67 -
2012-01-28 12:50:00 -6.0  -12.4  1050.0 5.0 73 -
2012-01-28 12:20:00 -5.0  -11.2  1050.0 5.0 62 -
2012-01-28 11:50:00 -6.0  -11.7  1049.0 4.0 67 -
2012-01-28 11:20:00 -6.0  -11.7  1049.0 4.0 73 -
2012-01-28 10:50:00 -7.0  -12.9  1049.0 4.0 73 -
2012-01-28 10:20:00 -6.0  -12.4  1049.0 5.0 73 -
2012-01-28 09:50:00 -7.0  -12.9  1049.0 4.0 79 -
2012-01-28 09:20:00 -6.0  -11.7  1049.0 4.0 73 -
2012-01-28 08:20:00 -7.0  -12.9  1048.0 4.0 79 -
2012-01-28 07:50:00 -7.0  -12.9  1048.0 4.0 79 -
2012-01-28 07:20:00 -7.0  -12.9  1048.0 4.0 79 -
2012-01-28 06:50:00 -7.0  -12.9  1048.0 4.0 73 -
2012-01-28 06:20:00 -7.0  -13.7  1047.0 5.0 73 -
2012-01-28 05:50:00 -8.0  -14.9  1047.0 5.0 78 -
2012-01-28 05:20:00 -8.0  -14.9  1047.0 5.0 78 -
2012-01-28 04:50:00 -8.0  -14.1  1047.0 4.0 78 -
2012-01-28 04:20:00 -8.0  -14.1  1047.0 4.0 78 -
2012-01-28 03:50:00 -8.0  -14.1  1047.0 4.0 72 -
2012-01-28 03:20:00 -8.0  -14.1  1047.0 4.0 78 -
2012-01-28 02:50:00 -8.0  -14.9  1047.0 5.0 78 -
2012-01-28 02:20:00 -8.0  -14.1  1047.0 4.0 78 -
2012-01-28 01:50:00 -8.0  -14.1  1046.0 4.0 78 -
2012-01-28 01:20:00 -8.0  -14.1  1046.0 4.0 78 -
2012-01-28 00:50:00 -8.0  -14.1  1046.0 4.0 85 -
2012-01-28 00:20:00 -8.0  -14.1  1046.0 4.0 85 -
Unit conversions: